Flag Weather past 2 weeks in Halden, Norway

Now
46 °F

Cool.


Feels Like: 41 °F
Forecast: 32 / 38 °F
Wind: 10 mph from West

Location: Stromtangen Fyr

Current Time: Nov 24, 2014 at 4:24:54 PM

Latest Report: Nov 24, 2014 at 4:00 PM


Visibility: N/A

Pressure: 29.75 "Hg

Humidity: 75%

Dew point: 38 °F

Location of HaldenLocation

Historic Weather in Halden — Graph

°F

Halden temperature yesterday

Maximum temperature yesterday: 44 °F (at 4:00 PM)
Minimum temperature yesterday: 39 °F (at 12:00 AM)
Average temperature yesterday: 42 °F

Past Weeks' High & Low Weather Summary

 TemperatureHumidityPressure
High50 °F (Nov 9, 3:00 PM)93% (Nov 11, 11:00 PM)30.50 "Hg (Nov 11, 11:00 PM)
Low35 °F (Nov 20, 11:00 AM)71% (Nov 17, 6:00 AM)29.68 "Hg (Nov 10, 4:00 PM)
Average43 °F86%30.14 "Hg
* Reported Nov 9 3:00 PM — Nov 24 3:00 PM, Halden, Weather by CustomWeather, © 2014

Note: Actual official high and low records may vary slightly from our data, if they occured in-between our weather recording intervals... More about our weather records

Advertising

Halden weather history for previous 24 hours

 ConditionsComfort  
Time TempWeatherWind HumidityBarometerVisibility
3:00 PM
Nov 24
46 °FCool.10 mph74%29.74 "HgN/A
2:00 PM46 °FCool.10 mph78%29.73 "HgN/A
1:00 PM46 °FCool.7 mph84%29.72 "HgN/A
12:00 PM46 °FCool.9 mph87%29.71 "HgN/A
11:00 AM46 °FCool.6 mph87%29.70 "HgN/A
10:00 AM47 °FCool.7 mph85%29.68 "HgN/A
9:00 AM47 °FCool.8 mph87%29.69 "HgN/A
8:00 AM47 °FCool.8 mph87%29.69 "HgN/A
7:00 AM47 °FCool.8 mph89%29.69 "HgN/A
6:00 AM47 °FCool.9 mph90%29.70 "HgN/A
5:00 AM47 °FCool.14 mph90%29.71 "HgN/A
4:00 AM47 °FCool.14 mph90%29.74 "HgN/A
3:00 AM46 °FCool.16 mph89%29.77 "HgN/A
2:00 AM46 °FCool.17 mph88%29.79 "HgN/A
1:00 AM46 °FCool.16 mph88%29.82 "HgN/A
12:00 AM44 °FQuite cool.10 mph88%29.85 "HgN/A
11:00 PM
Nov 23
44 °FQuite cool.9 mph89%29.89 "HgN/A
10:00 PM43 °FQuite cool.7 mph89%29.91 "HgN/A
9:00 PM43 °FQuite cool.5 mph88%29.97 "HgN/A
8:00 PM43 °FQuite cool.7 mph88%29.98 "HgN/A
7:00 PM43 °FQuite cool.9 mph90%30.01 "HgN/A
6:00 PM43 °FQuite cool.9 mph87%30.05 "HgN/A
5:00 PM43 °FQuite cool.8 mph86%30.09 "HgN/A
4:00 PM44 °FQuite cool.9 mph84%30.11 "HgN/A
Weather by CustomWeather, © 2014

See weather overviewHow to use our weather pages